User: anonymous   Login
Location: Oshawa
(43.9000°N, 78.8670°W)
Time: 08:19:04
(UTC-04:00)
Language:

CZ-4C R/B - Orbit

View from above orbital plane
View from above orbital plane
View from above satellite
View from above satellite

Ground track
Ground track

The orbit data is extracted from the following two-line orbital elements,

1 32290U 07055B   16147.80332057  .00003069  00000-0  92984-4 0  9994
2 32290  97.5254 241.0731 0072524  68.3337 292.5607 15.32377044472604
Epoch (UTC): 26 May 2016 19:16:46
Eccentricity: 0.0072524
inclination: 97.5254°
perigee height: 419 km
apogee height: 518 km
right ascension of ascending node: 241.0731°
argument of perigee: 68.3337°
revolutions per day: 15.32377044
mean anomaly at epoch: 292.5607°
orbit number at epoch: 47260

The dashed part of the orbit path shows where the satellite is in the earth's shadow,  

DLR